EGXCEGCN

Guest
Details From EGXC - RAF Coningsby
To EGCN - Doncaster Sheffield
Flight Number -
Tags generated
Created
Modified
Stats Distance 38 nm / 70 km
Max Altitude 3,200 ft / 975 m
Waypoints 3
Social Downloads 2
Likes 0
Share VATSIM

Download

Looking for another format? Having issues loading an existing format? Contact us
Advertisement - Login to hide

Notes

Basic altitude profile: - Ascent Rate: 2500ft/min - Ascent Speed: 250kts - Cruise Altitude: 35000ft - Cruise Speed: 420kts - Descent Rate: 1500ft/min - Descent Speed: 250kts Options: - Use NATs: yes - Use PACOTS: yes - Use low airways: yes - Use high airways: yes

Route

EGXC LAMIX EGCN

ID Type Via Altitude Latitude Longitude Leg Dist Tot Dist Heading (true) Name
O EGXC APT - 0 ft / 0 m 53.09316˚ -0.16613˚ - 0 nm - RAF Coningsby
LAMIX FIX - 3,200 ft / 975 m 53.30806˚ -0.68222˚ 22 nm 22 nm 305° / 305° -
O EGCN APT - 0 ft / 0 m 53.47465˚ -1.00447˚ 15 nm 37 nm 311° / 311° Doncaster Sheffield

Altitude Profile

Advertisement - Login to hide

EGXC

Details ICAO EGXC (QCY)
Name RAF Coningsby
Region United Kingdom
Timezone Europe/London (UTC+1.0)
Stats Elevation 25 ft / 8 m (AMSL)
Location 53.093165° -0.166128°
Runways 1
Magnetic Variation 0.572° W

METAR

EGXC 271450Z 08018KT 9999 FEW050CB SCT110 20/11 Q1017 BLU

Decode

TAF

TAF EGXC 271354Z 2715/2809 07015G25KT CAVOK BECMG 2715/2718 07012KT PROB40 TEMPO 2715/2721 7000 SHRA BKN050CB PROB30 2800/2807 4000 BR BKN005

Decode

Departure Runways

ID Width Length Bearing (true) Bearing (mag) Surface Threshold Offset Overrun Length
08 200 ft / 61 m 8,962 ft / 2,732 m 71.85° 72.42° Concrete 0 ft / 0 m 0 ft / 0 m
26 200 ft / 61 m 8,962 ft / 2,732 m 251.89° 252.46° Concrete 0 ft / 0 m 0 ft / 0 m

EGCN

Details ICAO EGCN (DSA)
Name Doncaster Sheffield
Region United Kingdom
Timezone Europe/London (UTC+1.0)
Stats Elevation 55 ft / 17 m (AMSL)
Location 53.474649° -1.004474°
Runways 1
Magnetic Variation 0.928° W

METAR

EGCN 271520Z 08011KT 050V120 CAVOK 22/12 Q1019

Decode

TAF

TAF EGCN 271055Z 2712/2812 05010KT 9999 FEW045 PROB30 TEMPO 2712/2721 4000 +SHRA +TSRA PROB30 2723/2812 4000 BR BKN004

Decode

Destination Runways

ID Width Length Bearing (true) Bearing (mag) Surface Threshold Offset Overrun Length
02 197 ft / 60 m 8,975 ft / 2,736 m 17.62° 18.55° Asphalt 486 ft / 148 m 13 ft / 4 m
20 197 ft / 60 m 8,975 ft / 2,736 m 197.63° 198.56° Asphalt 0 ft / 0 m 0 ft / 0 m

Approach Navaids

Runway Type Ident Frequency Range Bearing (true) Bearing (mag) Slope Elevation
20 Localiser IFNL 110.95 MHz 18 nm / 33 km 197.61° 198.53° - 55 ft / 17 m (AMSL)
20 Glidescope IFNL 110.95 MHz 10 nm / 19 km 197.63° 198.55° 3.00° 55 ft / 17 m (AMSL)
20 DME IFNL 110.95 MHz 18 nm / 33 km - - - 11 ft / 3 m (AMSL)

Popular Alternatives